User: anonymous   Login
Location: Carella
(45.8167°N, 9.2667°E)
Time: 03:56:06
(UTC+00:00)
Language:

deb Kosmos-1275 - Orbit

View from above orbital plane
View from above orbital plane
View from above satellite
View from above satellite

Ground track
Ground track

The orbit data is extracted from the following two-line orbital elements,

1 14556U 81053JL  20295.25456295 +.00000551 +00000-0 +61702-3 0  9994
2 14556 083.0152 034.1242 0137027 253.6730 133.8041 13.65610584830206
Epoch (UTC): 21 October 2020 06:06:34
Eccentricity: 0.0137027
inclination: 83.0152°
perigee height: 914 km
apogee height: 1116 km
right ascension of ascending node: 34.1242°
argument of perigee: 253.6730°
revolutions per day: 13.65610584
mean anomaly at epoch: 133.8041°
orbit number at epoch: 83020

The dashed part of the orbit path shows where the satellite is in the earth's shadow,  

DLR